[[{"header":{"parameterUnit":"m.s-1","parameterCategory":1,"la1":30.2991,"la2":30.254,"lo1":-89.0895,"lo2":-89.0444,"dy":0.0017,"dx":0.0017,"nx":28,"ny":28,"refTime":"2023-10-01T21:00:00:Z","depth":0,"parameterNumber":2,"parameterNumberName":"U-component_of_WINDS"},"data":[0,0,0,0,0,0,0,0,0,0,0,0,0,0,0,0,0,0,0,0,0,0,0,0,0,0,0,0,0,0,0,0,0,0,0,0,0,0,0,0,0,0,0,0,0,0,0,0,0,0,0,0,0,0,0,0,0,0,-3.009,-3.009,0,-3.013,-3.013,-3.0131,-2.9976,-2.9971,-2.9966,-2.9962,-3.0011,-3.0016,-3.0022,0,0,0,0,0,0,0,0,0,0,0,0,0,-2.9886,-2.989,-3.009,-3.009,-3.0091,-3.013,-3.013,-3.0131,-2.9976,-2.9971,-2.9965,-2.996,-3.0009,-3.0015,-3.0022,0,0,0,0,0,0,0,0,0,0,0,0,0,-2.9955,-2.9892,-3.009,-3.0018,-3.0012,-3.0129,-3.013,-3.0131,-2.9978,-2.9971,-2.9964,-2.9957,-3.0007,-3.0015,-3.0023,-3.0213,0,0,-3.0049,-3.0052,0,0,0,0,0,0,0,0,-2.9952,-2.9963,-3.0028,-3.0023,-3.0017,-3.004,-3.0076,-3.0159,-2.9979,-2.9991,-2.9962,-2.9954,-3.0027,-3.0033,-3.0056,-3.0216,-3.0218,-3.0049,-3.0055,-3.0058,-3.0061,0,0,0,0,0,0,0,-2.9947,-2.996,-3.0106,-3.0029,-3.0023,-2.9986,-2.9988,-3.0091,-3.0048,-2.9989,-2.9978,-2.9985,-3.0022,-3.0048,-3.0056,-3.0218,-3.0049,-3.0057,-3.0062,-3.0065,-3.0536,-3.0544,0,0,0,0,0,0,-2.9951,-2.9957,-3.0104,-3.0107,-2.9966,-2.9995,-2.9998,-3.004,-3.0046,-3.004,-2.9991,-2.9977,-3.0037,-3.0046,-3.0057,-3.0281,-3.0058,-3.0066,-3.0071,-3.0529,-3.0538,-3.0546,0,0,0,0,0,0,-2.9947,-2.9965,-3.0103,-3.0029,-3.0044,-3.0006,-3.0055,-3.0044,-3.007,-3.0046,-3.0039,-3.0025,-3.0032,-3.0045,-3.0175,-3.028,-3.007,-3.0077,-3.052,-3.0532,-3.0542,-3.073,0,0,0,0,0,0,-2.9942,-2.9965,-3.0036,-3.0032,-3.0048,-3.0219,-3.0061,-3.005,-3.0084,-3.0067,-3.0076,-3.0072,-3.0028,-3.0163,-3.0184,-3.0288,-3.0084,-3.0511,-3.0525,-3.0539,-3.0714,-3.0746,-3.0773,0,0,0,0,0,-2.9935,-3.0088,-3.004,-3.0059,-3.0136,-3.0225,-3.0235,-3.0179,-3.0093,-3.0165,-3.0149,-3.0071,-3.0265,-3.0178,-3.0199,-3.0308,-3.0504,-3.0521,-3.0538,-3.0701,-3.074,-3.0772,0,0,0,0,0,0,-3.0109,-3.0087,-3.0033,-3.0189,-3.021,-3.0199,-3.0288,-3.0222,-3.027,-3.0253,-3.0184,-3.0187,-3.033,-3.0331,-3.0235,-3.0492,-3.037,-3.0392,-3.0487,-3.0523,-3.0552,-3.055,-3.0091,0,0,0,0,0,-3.0165,-3.0237,-3.0215,-3.0355,-3.0368,-3.0327,-3.0364,-3.0318,-3.0338,-3.0347,-3.0341,-3.0366,-3.0432,-3.0477,-3.0537,-3.0712,-3.0713,-3.0797,-3.0827,-3.0851,-3.0872,-3.0966,-3.1004,-3.0601,-3.0601,-3.0601,0,0,-3.0282,-3.0279,-3.033,-3.039,-3.0401,-3.0479,-3.0335,-3.0425,-3.0483,-3.0362,-3.0483,-3.048,-3.0503,-3.0656,-3.0724,-3.0662,-3.0983,-3.0873,-3.0893,-3.09,-3.0987,-3.1025,-3.1059,-3.0613,-3.0611,-3.0609,0,0,-3.0537,-3.0541,-3.0658,-3.0671,-3.0688,-3.0659,-3.0688,-3.0686,-3.0678,-3.0799,-3.0709,-3.0778,-3.0894,-3.0913,-3.0939,-3.1199,-3.113,-3.122,-3.1376,-3.1469,-3.15,-3.1528,-3.1622,-3.1657,-3.124,-3.1241,-3.1241,0,-3.0682,-3.0795,-3.0728,-3.0823,-3.0852,-3.0742,-3.0862,-3.0878,-3.0916,-3.094,-3.0869,-3.101,-3.1018,-3.1175,-3.1238,-3.1262,-3.1294,-3.122,-3.15,-3.1528,-3.1553,-3.1642,-3.1678,-3.1252,-3.1251,-3.125,-3.1249,0,-3.0972,-3.1052,-3.1145,-3.118,-3.122,-3.1327,-3.1278,-3.1327,-3.1278,-3.1257,-3.1382,-3.1386,-3.1445,-3.1478,-3.1433,-3.163,-3.1591,-3.1512,-3.1387,-3.1603,-3.1686,-3.172,-3.1268,-3.1264,-3.1261,-3.1258,0,0,-3.1341,-3.1335,-3.1371,-3.1385,-3.1395,-3.1457,-3.1559,-3.1613,-3.1657,-3.1686,-3.1771,-3.187,-3.1796,-3.1825,-3.178,-3.1861,-3.2069,-3.1772,-3.1771,-3.1828,-3.2287,-3.2349,-3.2389,-3.2021,-3.2027,-3.2032,-3.2286,0,-3.1591,-3.1763,-3.1705,-3.1882,-3.1955,-3.185,-3.194,-3.1957,-3.194,-3.2001,-3.1982,-3.2054,-3.195,-3.1967,-3.2042,-3.2028,-3.216,-3.2008,-3.2103,-3.2107,-3.2102,-3.2432,-3.2497,-3.2736,-3.2318,-3.2323,-3.2327,0,-3.1908,-3.1946,-3.2129,-3.2125,-3.2154,-3.2235,-3.228,-3.2339,-3.2356,-3.2338,-3.2369,-3.2307,-3.2409,-3.2283,-3.2424,-3.2321,-3.2356,-3.2355,-3.2363,-3.2372,-3.2232,-3.2452,-3.2811,-3.2848,-3.2377,-3.2373,-3.237,0,-3.216,-3.2257,-3.2379,-3.2394,-3.2393,-3.2452,-3.2455,-3.2465,-3.2501,-3.2541,-3.2564,-3.2617,-3.2646,-3.2689,-3.2644,-3.2555,-3.2792,-3.2662,-3.2782,-3.2784,-3.2839,-3.2837,-3.3211,-3.2859,-3.2858,-3.2857,-3.2857,0,-3.2447,-3.2564,-3.2492,-3.2567,-3.2695,-3.2627,-3.2756,-3.2747,-3.2757,-3.283,-3.2743,-3.2814,-3.2748,-3.2814,-3.2779,-3.2902,-3.2916,-3.2906,-3.2896,-3.2915,-3.2917,-3.2939,-3.2922,-3.2867,-3.2865,-3.2863,-3.2861,0,-3.2752,-3.2708,-3.2834,-3.2821,-3.282,-3.2915,-3.2905,-3.2975,-3.295,-3.3044,-3.3062,-3.3025,-3.3098,-3.3056,-3.3131,-3.3107,-3.3268,-3.3234,-3.3262,-3.3253,-3.3377,-3.3367,-3.3781,-3.3832,-3.3445,-3.3449,-3.3452,0,-3.2939,-3.3026,-3.3021,-3.3062,-3.307,-3.3138,-3.3173,-3.311,-3.3151,-3.3176,-3.3244,-3.3308,-3.3357,-3.3479,-3.346,-3.3518,-3.3486,-3.3627,-3.3494,-3.3511,-3.349,-3.3486,-3.3495,-3.3655,-3.3659,-3.3663,-3.3666,0,-3.3277,-3.3251,-3.3303,-3.335,-3.3394,-3.3427,-3.3454,-3.3494,-3.343,-3.3481,-3.3553,-3.359,-3.3665,-3.3732,-3.378,-3.3785,-3.3717,-3.3707,-3.3738,-3.376,-3.3773,-3.3769,-3.3337,-3.3699,-3.3695,-3.3693,-3.3691,-3.369,-3.353,-3.3602,-3.3609,-3.3671,-3.3684,-3.3711,-3.3776,-3.3758,-3.3815,-3.387,-3.3829,-3.3915,-3.393,-3.3987,-3.4001,-3.4068,-3.4012,-3.4057,-3.4069,-3.4082,-3.4099,-3.376,-3.4077,-3.4076,-3.4075,-3.4074,-3.4074,0,-3.3864,-3.3863,-3.3921,-3.3959,-3.4009,-3.3935,-3.3961,-3.4008,-3.4083,-3.4101,-3.415,-3.4233,-3.4296,-3.4281,-3.4339,-3.4396,-3.4366,-3.4414,-3.441,-3.4413,-3.4145,-3.4113,-3.4437,-3.4437,-3.4437,-3.4437,-3.4436,-3.4436,-3.4045,-3.4162,-3.4137,-3.426,-3.4258,-3.4339,-3.436,-3.4385,-3.4399,-3.4495,-3.4545,-3.4534,-3.454,-3.4596,-3.4652,-3.4646,-3.4673,-3.4732,-3.4716,-3.4467,-3.4431,-3.4397,-3.4367,-3.4738,-3.4738,-3.4977,-3.4979,-3.4981]},{"header":{"parameterUnit":"m.s-1","parameterCategory":1,"la1":30.2991,"la2":30.254,"lo1":-89.0895,"lo2":-89.0444,"dy":0.0017,"dx":0.0017,"nx":28,"ny":28,"refTime":"2023-10-01T21:00:00:Z","depth":0,"parameterNumber":3,"parameterNumberName":"V-component_of_WINDS"},"data":[0,0,0,0,0,0,0,0,0,0,0,0,0,0,0,0,0,0,0,0,0,0,0,0,0,0,0,0,0,0,0,0,0,0,0,0,0,0,0,0,0,0,0,0,0,0,0,0,0,0,0,0,0,0,0,0,0,0,-1.4761,-1.4761,0,-1.4734,-1.4733,-1.4733,-1.4762,-1.4764,-1.4765,-1.4766,-1.4731,-1.4729,-1.4727,0,0,0,0,0,0,0,0,0,0,0,0,0,-1.4833,-1.4831,-1.4761,-1.4761,-1.4761,-1.4734,-1.4733,-1.4733,-1.4762,-1.4764,-1.4765,-1.4766,-1.4732,-1.4729,-1.4727,0,0,0,0,0,0,0,0,0,0,0,0,0,-1.4803,-1.4831,-1.4761,-1.4772,-1.4773,-1.4734,-1.4733,-1.4733,-1.4762,-1.4764,-1.4765,-1.4767,-1.4732,-1.473,-1.4727,-1.4673,0,0,-1.4717,-1.4716,0,0,0,0,0,0,0,0,-1.4805,-1.48,-1.4771,-1.4771,-1.4772,-1.4753,-1.4746,-1.4713,-1.4762,-1.4766,-1.4766,-1.4768,-1.4737,-1.4733,-1.4724,-1.4672,-1.467,-1.4717,-1.4715,-1.4714,-1.4713,0,0,0,0,0,0,0,-1.4807,-1.4802,-1.475,-1.477,-1.4771,-1.4776,-1.4774,-1.474,-1.4742,-1.4766,-1.4768,-1.4764,-1.4737,-1.4727,-1.4724,-1.467,-1.4717,-1.4715,-1.4713,-1.4712,-1.4569,-1.4567,0,0,0,0,0,0,-1.4808,-1.4803,-1.4751,-1.4749,-1.4793,-1.4774,-1.4771,-1.4758,-1.4742,-1.4742,-1.4763,-1.4766,-1.4731,-1.4727,-1.4722,-1.4657,-1.4714,-1.4711,-1.471,-1.4571,-1.4569,-1.4566,0,0,0,0,0,0,-1.481,-1.4804,-1.4752,-1.4777,-1.4771,-1.4771,-1.4755,-1.4756,-1.4746,-1.474,-1.474,-1.4753,-1.4733,-1.4727,-1.4685,-1.4656,-1.471,-1.4707,-1.4573,-1.457,-1.4568,-1.4526,0,0,0,0,0,0,-1.4812,-1.4804,-1.4785,-1.4776,-1.4769,-1.4717,-1.4754,-1.4754,-1.4741,-1.4745,-1.473,-1.473,-1.4733,-1.4689,-1.4682,-1.4653,-1.4705,-1.4576,-1.4572,-1.4568,-1.453,-1.4522,-1.4515,0,0,0,0,0,-1.4814,-1.4774,-1.4784,-1.4778,-1.4746,-1.4716,-1.4711,-1.4718,-1.4739,-1.4719,-1.4715,-1.473,-1.4661,-1.4685,-1.4677,-1.4646,-1.4578,-1.4573,-1.4569,-1.4533,-1.4523,-1.4515,0,0,0,0,0,0,-1.4777,-1.4773,-1.4784,-1.474,-1.4728,-1.4721,-1.4696,-1.4708,-1.4689,-1.4692,-1.47,-1.4697,-1.4652,-1.4645,-1.4672,-1.4592,-1.4622,-1.4616,-1.4598,-1.4589,-1.4582,-1.4582,-1.4702,0,0,0,0,0,-1.4765,-1.4742,-1.4739,-1.47,-1.4694,-1.4696,-1.4682,-1.4689,-1.4676,-1.467,-1.4664,-1.4648,-1.4623,-1.4606,-1.4583,-1.453,-1.4525,-1.4505,-1.4497,-1.4491,-1.4485,-1.4453,-1.4443,-1.4552,-1.4552,-1.4552,0,0,-1.4737,-1.4732,-1.4716,-1.4692,-1.4684,-1.4657,-1.4691,-1.4663,-1.4642,-1.4665,-1.4625,-1.462,-1.4603,-1.4555,-1.4534,-1.4548,-1.4454,-1.4486,-1.4481,-1.4477,-1.4447,-1.4437,-1.4428,-1.4549,-1.4549,-1.455,0,0,-1.4672,-1.4668,-1.4634,-1.4625,-1.4612,-1.4614,-1.4606,-1.4596,-1.4594,-1.4554,-1.4571,-1.4546,-1.4503,-1.449,-1.4477,-1.4407,-1.4419,-1.44,-1.4359,-1.4329,-1.432,-1.4312,-1.4284,-1.4274,-1.4394,-1.4393,-1.4393,0,-1.4638,-1.4602,-1.4614,-1.4584,-1.4571,-1.4594,-1.4558,-1.4548,-1.4527,-1.4517,-1.4534,-1.448,-1.447,-1.4418,-1.4401,-1.4391,-1.4379,-1.44,-1.4321,-1.4313,-1.4306,-1.4279,-1.4268,-1.4391,-1.4391,-1.4392,-1.4392,0,-1.4559,-1.4534,-1.4507,-1.4489,-1.4474,-1.4441,-1.4445,-1.4428,-1.4436,-1.4435,-1.4393,-1.4383,-1.4356,-1.4345,-1.4352,-1.4293,-1.4302,-1.432,-1.435,-1.4293,-1.4267,-1.4257,-1.4387,-1.4388,-1.4389,-1.439,0,0,-1.4468,-1.4458,-1.4447,-1.4438,-1.4426,-1.4405,-1.4372,-1.4348,-1.4332,-1.4317,-1.4287,-1.425,-1.4267,-1.4252,-1.4258,-1.4232,-1.4173,-1.4253,-1.4252,-1.4235,-1.4102,-1.4086,-1.4074,-1.4182,-1.418,-1.4179,-1.4102,0,-1.4401,-1.4346,-1.4356,-1.4301,-1.4275,-1.4296,-1.4267,-1.4255,-1.4253,-1.4229,-1.4227,-1.4199,-1.4225,-1.4216,-1.4191,-1.4185,-1.4145,-1.4191,-1.415,-1.4148,-1.415,-1.4061,-1.4044,-1.3973,-1.4093,-1.4091,-1.409,0,-1.4315,-1.4298,-1.4241,-1.4232,-1.4221,-1.4195,-1.4173,-1.4151,-1.4137,-1.4137,-1.4121,-1.4132,-1.4096,-1.4129,-1.4077,-1.4108,-1.4092,-1.4086,-1.4084,-1.4077,-1.4113,-1.4048,-1.3951,-1.3938,-1.4075,-1.4076,-1.4077,0,-1.425,-1.4213,-1.4174,-1.4166,-1.4155,-1.4135,-1.4129,-1.4117,-1.4101,-1.4082,-1.4071,-1.4047,-1.4032,-1.4012,-1.4014,-1.4039,-1.396,-1.3994,-1.3956,-1.3956,-1.3936,-1.3936,-1.383,-1.3932,-1.3932,-1.3932,-1.3932,0,-1.4171,-1.4135,-1.4145,-1.412,-1.4078,-1.4089,-1.4047,-1.4044,-1.4032,-1.4005,-1.4022,-1.3996,-1.4002,-1.3975,-1.3977,-1.3931,-1.3926,-1.3922,-1.3922,-1.3919,-1.3918,-1.3905,-1.3909,-1.3929,-1.393,-1.393,-1.3931,0,-1.409,-1.4096,-1.4054,-1.4047,-1.4045,-1.4014,-1.4007,-1.3982,-1.3982,-1.3947,-1.3939,-1.3938,-1.3907,-1.3909,-1.3873,-1.3874,-1.3817,-1.3825,-1.3822,-1.3823,-1.3783,-1.3785,-1.3662,-1.3644,-1.3761,-1.376,-1.3759,0,-1.4038,-1.4011,-1.4001,-1.3985,-1.3978,-1.3952,-1.3937,-1.3947,-1.3929,-1.391,-1.3887,-1.3858,-1.3835,-1.3783,-1.3778,-1.375,-1.3754,-1.3713,-1.375,-1.3746,-1.3749,-1.3749,-1.3745,-1.3704,-1.3703,-1.3702,-1.3701,0,-1.3944,-1.3948,-1.3926,-1.3905,-1.3887,-1.387,-1.3854,-1.384,-1.3847,-1.3827,-1.3796,-1.3778,-1.3742,-1.3712,-1.3685,-1.3676,-1.3688,-1.3691,-1.3679,-1.3673,-1.3671,-1.3668,-1.3798,-1.3692,-1.3693,-1.3694,-1.3694,-1.3695,-1.3873,-1.3848,-1.3838,-1.3812,-1.3802,-1.3787,-1.3763,-1.3761,-1.3737,-1.3709,-1.3716,-1.3681,-1.3665,-1.363,-1.3619,-1.3589,-1.3603,-1.3588,-1.3584,-1.3579,-1.3572,-1.3679,-1.3585,-1.3585,-1.3585,-1.3585,-1.3586,0,-1.3776,-1.377,-1.3747,-1.3726,-1.3705,-1.3723,-1.3706,-1.3687,-1.3656,-1.3642,-1.3619,-1.3582,-1.3553,-1.3545,-1.3516,-1.3493,-1.3498,-1.3485,-1.3484,-1.3481,-1.3563,-1.3574,-1.3481,-1.3481,-1.3481,-1.3481,-1.3481,-1.3481,-1.3723,-1.3681,-1.3684,-1.3637,-1.3631,-1.3598,-1.3587,-1.3572,-1.356,-1.3519,-1.3495,-1.3492,-1.3479,-1.3449,-1.3421,-1.3419,-1.3406,-1.3389,-1.3389,-1.3465,-1.3476,-1.3486,-1.3495,-1.3387,-1.3387,-1.3309,-1.3308,-1.3308]}]]